Marshfield, WI

8:37 PM CST on February 07, 2016 (GMT -0600)
Marshfield Municipal

Weather History for KMFI - November, 2011

Change the Weather History Date:

Thursday, November 17, 2011

  Actual Average Record
Temperature  
Mean Temperature 24 °F -  
Max Temperature 28 °F 41 °F 70 °F (1953)
Min Temperature 19 °F 26 °F -7 °F (1959)
Degree Days  
Heating Degree Days 42    
Moisture  
Dew Point 12 °F    
Average Humidity 61    
Maximum Humidity 74    
Minimum Humidity 47    
Precipitation  
Precipitation 0.00 in - - ()
Sea Level Pressure  
Sea Level Pressure 30.11 in    
Wind  
Wind Speed 9 mph (West)    
Max Wind Speed 14 mph    
Max Gust Speed 20 mph    
Visibility 10 miles    
Events      
Averages and records for this station are not official NWS values.
T = Trace of Precipitation, MM = Missing Value Source: NWS Daily Summary

Daily Weather History Graph

Daily Weather History Graph

Search for Another Location

Airport or City:

Trip Planner

Search our weather history database for the weather conditions in past years. The results will help you decide how hot, cold, wet, or windy it might be!

Date:

Astronomy

Nov. 17, 2011 Rise Set
Actual Time 6:59 AM CST 4:31 PM CST
Civil Twilight 6:28 AM CST 5:02 PM CST
Nautical Twilight 5:52 AM CST 5:38 PM CST
Astronomical Twilight 5:18 AM CST 6:12 PM CST
Moon 10:57 PM CST (11/17) 12:04 PM CST (11/17)
Length of Visible Light 10h 34m
Length of Day
9h 31m
Waning Gibbous, 59% of the Moon is Illuminated
Nov 17
Waning Gibbous
Nov 18
Last Quarter
Nov 25
New
Dec 2
First Quarter
Dec 10
Full

Hourly Weather History & Observations

Time (CST) Temp. Windchill Dew Point Humidity Pressure Visibility Wind Dir Wind Speed Gust Speed Precip Events Conditions
12:54 AM 23.0 °F 13.1 °F 12.0 °F 63% 30.08 in 10.0 mi West 9.2 mph - N/A   Overcast
1:54 AM 24.1 °F 14.4 °F 12.0 °F 60% 30.08 in 10.0 mi West 9.2 mph - N/A   Overcast
2:54 AM 24.1 °F 14.4 °F 12.9 °F 62% 30.08 in 10.0 mi West 9.2 mph - N/A   Overcast
3:54 AM 23.0 °F 11.1 °F 12.0 °F 63% 30.08 in 10.0 mi West 12.7 mph - N/A   Overcast
4:54 AM 21.0 °F 9.9 °F 12.0 °F 68% 30.09 in 10.0 mi West 10.4 mph - N/A   Clear
5:54 AM 19.9 °F 11.1 °F 10.9 °F 68% 30.10 in 10.0 mi West 6.9 mph - N/A   Clear
6:54 AM 19.0 °F 10.0 °F 12.0 °F 74% 30.11 in 10.0 mi West 6.9 mph - N/A   Clear
7:35 AM 19.4 °F 10.4 °F 12.2 °F 74% 30.05 in 10.0 mi West 6.9 mph - N/A   Mostly Cloudy
7:54 AM 21.9 °F 12.5 °F 12.9 °F 68% 30.12 in 10.0 mi West 8.1 mph - N/A   Overcast
8:54 AM 23.0 °F 13.1 °F 12.9 °F 65% 30.13 in 10.0 mi West 9.2 mph - N/A   Overcast
9:54 AM 26.1 °F 16.8 °F 14.0 °F 60% 30.14 in 10.0 mi West 9.2 mph - N/A   Mostly Cloudy
10:04 AM 26.6 °F 15.2 °F 12.2 °F 55% 30.08 in 10.0 mi WNW 13.8 mph - N/A   Mostly Cloudy
10:32 AM 26.6 °F 17.5 °F 14.0 °F 59% 30.09 in 10.0 mi West 9.2 mph 18.4 mph N/A   Mostly Cloudy
10:54 AM 26.1 °F 14.5 °F 12.9 °F 58% 30.14 in 10.0 mi West 13.8 mph - N/A   Mostly Cloudy
11:10 AM 26.6 °F 15.2 °F 12.2 °F 55% 30.08 in 10.0 mi West 13.8 mph - N/A   Scattered Clouds
11:47 AM 28.4 °F 18.5 °F 12.2 °F 51% 30.08 in 10.0 mi West 11.5 mph - N/A   Mostly Cloudy
11:54 AM 28.0 °F 18.1 °F 12.9 °F 53% 30.14 in 10.0 mi WNW 11.5 mph - N/A   Mostly Cloudy
12:14 PM 28.4 °F 18.5 °F 12.2 °F 51% 30.07 in 10.0 mi West 11.5 mph - N/A   Scattered Clouds
12:54 PM 28.9 °F 18.6 °F 14.0 °F 54% 30.13 in 10.0 mi West 12.7 mph - N/A   Partly Cloudy
1:54 PM 28.0 °F 17.5 °F 12.0 °F 51% 30.12 in 10.0 mi West 12.7 mph 19.6 mph N/A   Partly Cloudy
2:54 PM 28.9 °F 18.6 °F 12.0 °F 49% 30.12 in 10.0 mi West 12.7 mph 18.4 mph N/A   Clear
3:54 PM 28.0 °F 18.6 °F 10.0 °F 47% 30.13 in 10.0 mi West 10.4 mph 18.4 mph N/A   Clear
4:54 PM 24.1 °F 17.0 °F 10.0 °F 55% 30.14 in 10.0 mi WSW 5.8 mph - N/A   Clear
5:54 PM 23.0 °F 15.8 °F 10.0 °F 58% 30.14 in 10.0 mi WSW 5.8 mph - N/A   Clear
6:54 PM 21.0 °F 16.2 °F 10.9 °F 65% 30.14 in 10.0 mi SW 3.5 mph - N/A   Clear
7:54 PM 21.0 °F 16.2 °F 10.0 °F 63% 30.13 in 10.0 mi SW 3.5 mph - N/A   Scattered Clouds
8:54 PM 19.9 °F 13.4 °F 12.0 °F 71% 30.13 in 10.0 mi South 4.6 mph - N/A   Clear
9:54 PM 21.0 °F 16.2 °F 14.0 °F 74% 30.12 in 10.0 mi South 3.5 mph - N/A   Clear
10:54 PM 21.9 °F 13.4 °F 12.9 °F 68% 30.09 in 10.0 mi South 6.9 mph - N/A   Mostly Cloudy
11:54 PM 24.1 °F 14.4 °F 12.9 °F 62% 30.06 in 10.0 mi SSE 9.2 mph - N/A   Scattered Clouds